Location: Devore Heights
(34.2372°N, 117.4156°W)
Time: 23:41:38
(UTC+00:00)

Transit 4A - Pass Details

Date: 16 September 2024
Orbit: 864 x 978 km, 66.8° (Epoch: 13 October)

Event Time Altitude Azimuth Distance (km) Brightness Sun altitude
Rises 11:46:45 0° 258° (WSW) 3,453 - -22.5°
Reaches altitude 10° 11:50:33 10° 283° (WNW) 2,535 - -21.8°
Exits shadow 11:53:31 14° 314° (NW) 2,270 9.7 -21.2°
Maximum altitude 11:53:32 14° 314° (NW) 2,270 9.7 -21.2°
Drops below altitude 10° 11:56:33 10° 345° (NNW) 2,573 10.2 -20.6°
Sets 12:00:30 0° 10° (N) 3,544 11.3 -19.8°
